[[{"header":{"parameterUnit":"m.s-1","parameterCategory":1,"la1":30.2991,"la2":30.254,"lo1":-89.0895,"lo2":-89.0444,"dy":0.0017,"dx":0.0017,"nx":28,"ny":28,"refTime":"2024-03-21T03:00:00:Z","depth":0,"parameterNumber":2,"parameterNumberName":"U-component_of_WINDS"},"data":[0,0,0,0,0,0,0,0,0,0,0,0,0,0,0,0,0,0,0,0,0,0,0,0,0,0,0,0,0,0,0,0,0,0,0,0,0,0,0,0,0,0,0,0,0,0,0,0,0,0,0,0,0,0,0,0,0,0,-5.2304,-5.2306,0,-5.2463,-5.2465,-5.2467,-5.2447,-5.2445,-5.2442,-5.244,-5.2601,-5.2608,-5.2614,0,0,0,0,0,0,0,0,0,0,0,0,0,-5.1981,-5.1988,-5.2304,-5.2306,-5.2308,-5.2463,-5.2465,-5.2467,-5.2448,-5.2444,-5.2441,-5.2438,-5.2599,-5.2607,-5.2615,0,0,0,0,0,0,0,0,0,0,0,0,0,-5.2129,-5.199,-5.2304,-5.2317,-5.232,-5.2463,-5.2465,-5.2468,-5.2448,-5.2444,-5.2441,-5.2437,-5.2596,-5.2606,-5.2616,-5.2755,0,0,-5.2647,-5.2651,0,0,0,0,0,0,0,0,-5.2121,-5.2141,-5.2313,-5.2316,-5.232,-5.2432,-5.2411,-5.2564,-5.2449,-5.24,-5.2439,-5.2435,-5.2548,-5.2561,-5.26,-5.2763,-5.277,-5.2647,-5.2654,-5.2658,-5.2661,0,0,0,0,0,0,0,-5.2111,-5.2134,-5.2367,-5.2316,-5.232,-5.2314,-5.2331,-5.244,-5.2493,-5.2404,-5.2402,-5.2422,-5.2549,-5.259,-5.2603,-5.2772,-5.2647,-5.2656,-5.2662,-5.2666,-5.3056,-5.306,0,0,0,0,0,0,-5.2097,-5.2126,-5.2362,-5.2372,-5.2209,-5.2323,-5.2342,-5.24,-5.2492,-5.2502,-5.2425,-5.242,-5.2575,-5.2592,-5.2609,-5.2776,-5.2658,-5.2667,-5.2673,-5.3051,-5.3057,-5.3061,0,0,0,0,0,0,-5.209,-5.2119,-5.2356,-5.2249,-5.2278,-5.2333,-5.2398,-5.2405,-5.2446,-5.2508,-5.2517,-5.2457,-5.2572,-5.2595,-5.2719,-5.2781,-5.2672,-5.2681,-5.3046,-5.3053,-5.3059,-5.3112,0,0,0,0,0,0,-5.2081,-5.2116,-5.217,-5.225,-5.2284,-5.2463,-5.2402,-5.2411,-5.2464,-5.2459,-5.2541,-5.2551,-5.2571,-5.2704,-5.2729,-5.2793,-5.2689,-5.3041,-5.3049,-5.3057,-5.3105,-5.3119,-5.3132,0,0,0,0,0,-5.207,-5.2179,-5.2173,-5.2202,-5.2353,-5.2467,-5.2486,-5.2508,-5.2469,-5.2523,-5.2563,-5.2548,-5.2771,-5.2717,-5.2744,-5.2813,-5.3037,-5.3047,-5.3056,-5.3099,-5.3116,-5.3132,0,0,0,0,0,0,-5.2104,-5.219,-5.2184,-5.2322,-5.2388,-5.2463,-5.2532,-5.2526,-5.2604,-5.2596,-5.2619,-5.2638,-5.2762,-5.2801,-5.2738,-5.2952,-5.2899,-5.2914,-5.2921,-5.2939,-5.2952,-5.2938,-5.2697,0,0,0,0,0,-5.2128,-5.2214,-5.2284,-5.2399,-5.2433,-5.2477,-5.2527,-5.2538,-5.2607,-5.2634,-5.2683,-5.2749,-5.2834,-5.2889,-5.2971,-5.3112,-5.3128,-5.3172,-5.3186,-5.3197,-5.3209,-5.3283,-5.3303,-5.3093,-5.3093,-5.3093,0,0,-5.2178,-5.2235,-5.2288,-5.2408,-5.246,-5.2547,-5.25,-5.2595,-5.266,-5.2648,-5.2767,-5.2806,-5.2882,-5.3014,-5.3074,-5.3049,-5.3271,-5.3209,-5.3217,-5.3224,-5.3295,-5.3315,-5.3333,-5.31,-5.3098,-5.3097,0,0,-5.2312,-5.2366,-5.2466,-5.2519,-5.2598,-5.2627,-5.2652,-5.2729,-5.2754,-5.2874,-5.2867,-5.2944,-5.3091,-5.3144,-5.319,-5.3346,-5.3334,-5.3372,-5.3441,-5.3514,-5.353,-5.3545,-5.3597,-5.3616,-5.3385,-5.3385,-5.3385,0,-5.2363,-5.2495,-5.2518,-5.2614,-5.2666,-5.2661,-5.2762,-5.2812,-5.2914,-5.2949,-5.2921,-5.3103,-5.3154,-5.3297,-5.3335,-5.3374,-5.3401,-5.3361,-5.3526,-5.3541,-5.3555,-5.3605,-5.3625,-5.3389,-5.3388,-5.3388,-5.3388,0,-5.2552,-5.2644,-5.2716,-5.2814,-5.2875,-5.2973,-5.301,-5.3068,-5.3075,-5.3106,-5.3228,-5.329,-5.3382,-5.3418,-5.3426,-5.3562,-5.3544,-5.3521,-5.3467,-5.3579,-5.3625,-5.3645,-5.3394,-5.3393,-5.3392,-5.3391,0,0,-5.2709,-5.282,-5.2845,-5.2889,-5.2977,-5.3048,-5.3146,-5.3237,-5.3285,-5.3356,-5.3437,-5.3561,-5.354,-5.3593,-5.3607,-5.3671,-5.3786,-5.364,-5.3642,-5.3661,-5.3937,-5.3951,-5.3972,-5.3781,-5.3785,-5.3788,-5.3929,0,-5.2849,-5.3021,-5.3045,-5.3197,-5.328,-5.3278,-5.3363,-5.3425,-5.3458,-5.3533,-5.357,-5.3656,-5.3623,-5.3655,-5.3719,-5.3758,-5.3841,-5.3749,-5.3854,-5.3857,-5.383,-5.3998,-5.4013,-5.4143,-5.3948,-5.3952,-5.3954,0,-5.3034,-5.311,-5.3269,-5.3344,-5.338,-5.3456,-5.3541,-5.3614,-5.3685,-5.3704,-5.3763,-5.3769,-5.3869,-5.3815,-5.3951,-5.3888,-5.3933,-5.396,-5.3965,-5.3972,-5.3909,-5.4005,-5.4185,-5.4203,-5.3984,-5.3981,-5.3979,0,-5.3127,-5.327,-5.3383,-5.3421,-5.3513,-5.3566,-5.3606,-5.3673,-5.3726,-5.3801,-5.3835,-5.3921,-5.3967,-5.4033,-5.4061,-5.4019,-5.4195,-5.4144,-5.4212,-5.4211,-5.4245,-5.4242,-5.4431,-5.4282,-5.4281,-5.4281,-5.428,0,-5.3278,-5.3375,-5.3426,-5.3495,-5.3604,-5.3631,-5.3737,-5.3776,-5.3836,-5.3912,-5.3917,-5.3988,-5.4023,-5.41,-5.4123,-5.4231,-5.4253,-5.427,-5.4274,-5.4267,-5.4264,-5.4293,-5.4283,-5.4286,-5.4285,-5.4284,-5.4283,0,-5.3398,-5.3437,-5.356,-5.3637,-5.3659,-5.3735,-5.38,-5.3867,-5.39,-5.3996,-5.402,-5.4072,-5.4162,-5.4198,-5.4309,-5.4325,-5.4448,-5.4447,-5.4423,-5.4424,-5.4488,-5.448,-5.4699,-5.4727,-5.4563,-5.4565,-5.4566,0,-5.349,-5.3564,-5.3649,-5.37,-5.3742,-5.3826,-5.3879,-5.391,-5.3966,-5.4052,-5.4108,-5.4199,-5.4272,-5.4416,-5.4463,-5.4547,-5.4546,-5.4617,-5.4559,-5.4548,-5.4542,-5.4536,-5.4542,-5.4626,-5.4628,-5.4629,-5.4631,0,-5.3646,-5.3662,-5.3739,-5.3824,-5.3889,-5.3957,-5.4023,-5.4065,-5.4106,-5.4168,-5.4261,-5.4318,-5.4431,-5.4519,-5.4606,-5.4647,-5.4645,-5.4649,-5.4669,-5.466,-5.4641,-5.4648,-5.4448,-5.4643,-5.4642,-5.4641,-5.464,-5.464,-5.3752,-5.3817,-5.3887,-5.3973,-5.4026,-5.4088,-5.4154,-5.4196,-5.4273,-5.4367,-5.4381,-5.4479,-5.4548,-5.4665,-5.471,-5.4786,-5.4768,-5.4797,-5.4803,-5.4809,-5.4811,-5.4633,-5.4803,-5.4803,-5.4803,-5.4802,-5.4802,0,-5.3905,-5.395,-5.4029,-5.4122,-5.4189,-5.4184,-5.4257,-5.4313,-5.44,-5.4464,-5.4536,-5.4642,-5.4728,-5.4783,-5.4869,-5.492,-5.4921,-5.4941,-5.4935,-5.4944,-5.4825,-5.4797,-5.4939,-5.4939,-5.4939,-5.4939,-5.4939,-5.4939,-5.3992,-5.4101,-5.4125,-5.426,-5.4304,-5.44,-5.4442,-5.4499,-5.455,-5.4668,-5.4739,-5.4775,-5.4835,-5.4926,-5.5005,-5.5019,-5.5048,-5.507,-5.5081,-5.4968,-5.4953,-5.4939,-5.4914,-5.5077,-5.5077,-5.5194,-5.5195,-5.5196]},{"header":{"parameterUnit":"m.s-1","parameterCategory":1,"la1":30.2991,"la2":30.254,"lo1":-89.0895,"lo2":-89.0444,"dy":0.0017,"dx":0.0017,"nx":28,"ny":28,"refTime":"2024-03-21T03:00:00:Z","depth":0,"parameterNumber":3,"parameterNumberName":"V-component_of_WINDS"},"data":[0,0,0,0,0,0,0,0,0,0,0,0,0,0,0,0,0,0,0,0,0,0,0,0,0,0,0,0,0,0,0,0,0,0,0,0,0,0,0,0,0,0,0,0,0,0,0,0,0,0,0,0,0,0,0,0,0,0,0.1417,0.1416,0,0.1336,0.1335,0.1334,0.1251,0.125,0.1249,0.1247,0.1166,0.1164,0.1163,0,0,0,0,0,0,0,0,0,0,0,0,0,0.1501,0.15,0.1417,0.1416,0.1415,0.1336,0.1335,0.1334,0.1251,0.125,0.1248,0.1247,0.1166,0.1165,0.1163,0,0,0,0,0,0,0,0,0,0,0,0,0,0.1447,0.15,0.1417,0.1364,0.1358,0.1336,0.1335,0.1333,0.1251,0.125,0.1248,0.1246,0.1166,0.1165,0.1163,0.1187,0,0,0.1158,0.1157,0,0,0,0,0,0,0,0,0.145,0.1444,0.1373,0.1368,0.1361,0.1302,0.1335,0.1284,0.1252,0.1292,0.1247,0.1245,0.1212,0.1207,0.1195,0.1183,0.1179,0.1158,0.1157,0.1156,0.1156,0,0,0,0,0,0,0,0.1454,0.1447,0.1385,0.1372,0.1365,0.1345,0.1335,0.1325,0.1263,0.1288,0.1282,0.1274,0.1209,0.1197,0.1193,0.1178,0.1158,0.1156,0.1155,0.1155,0.1183,0.1185,0,0,0,0,0,0,0.1466,0.1451,0.1387,0.1382,0.1403,0.1345,0.1334,0.1323,0.1263,0.1252,0.1275,0.127,0.1201,0.1195,0.119,0.1214,0.1156,0.1154,0.1154,0.1181,0.1183,0.1185,0,0,0,0,0,0,0.1468,0.1461,0.1391,0.1415,0.1404,0.1345,0.1333,0.1322,0.131,0.1253,0.1241,0.1275,0.1199,0.1192,0.1188,0.121,0.1154,0.1152,0.1179,0.1182,0.1184,0.1264,0,0,0,0,0,0,0.1471,0.1462,0.147,0.1416,0.1403,0.1391,0.1334,0.1322,0.1307,0.13,0.1249,0.1239,0.1197,0.1191,0.1187,0.1207,0.1151,0.1177,0.118,0.1183,0.1259,0.1269,0.1277,0,0,0,0,0,0.1474,0.1496,0.1471,0.1464,0.1412,0.1392,0.1385,0.1336,0.1309,0.1317,0.1281,0.1241,0.1209,0.1192,0.1186,0.1206,0.1175,0.1179,0.1183,0.1255,0.1267,0.1277,0,0,0,0,0,0,0.1554,0.1488,0.1459,0.1464,0.1434,0.1378,0.1386,0.135,0.1328,0.1322,0.1263,0.1252,0.1256,0.123,0.1213,0.1226,0.1186,0.1189,0.1243,0.1254,0.1263,0.1269,0.1149,0,0,0,0,0,0.1573,0.1562,0.1504,0.1514,0.15,0.1446,0.1435,0.1401,0.1368,0.1355,0.1318,0.1288,0.1271,0.1261,0.1242,0.1255,0.1243,0.1266,0.1275,0.1283,0.1287,0.1293,0.1303,0.1198,0.1198,0.1198,0,0,0.161,0.1572,0.1569,0.1529,0.1502,0.1492,0.1436,0.1428,0.142,0.1353,0.1348,0.132,0.1283,0.1288,0.1288,0.1267,0.1313,0.1288,0.1295,0.1294,0.1298,0.1308,0.1317,0.1201,0.12,0.12,0,0,0.1674,0.1644,0.1649,0.1623,0.1583,0.1547,0.1549,0.1498,0.1477,0.147,0.142,0.1411,0.1383,0.1358,0.1343,0.1399,0.1362,0.1394,0.1442,0.1449,0.1458,0.1465,0.1486,0.1494,0.1398,0.1398,0.1398,0,0.1726,0.1709,0.1657,0.1652,0.1636,0.1575,0.1581,0.1558,0.1514,0.1505,0.1482,0.1446,0.1416,0.1416,0.143,0.1418,0.1419,0.14,0.1461,0.1467,0.1473,0.1492,0.15,0.1402,0.1402,0.1401,0.1401,0,0.1776,0.1765,0.1774,0.1733,0.1719,0.1719,0.1667,0.1659,0.1626,0.1593,0.1588,0.155,0.1524,0.1521,0.1488,0.1516,0.1504,0.1471,0.143,0.1488,0.1506,0.1512,0.1409,0.1407,0.1406,0.1405,0,0,0.1888,0.1818,0.1823,0.1804,0.1756,0.1747,0.1745,0.1719,0.1713,0.1685,0.1683,0.1661,0.1631,0.1613,0.1577,0.1583,0.1632,0.155,0.1548,0.1567,0.1662,0.1687,0.1697,0.1607,0.1608,0.1609,0.1665,0,0.1944,0.1937,0.189,0.1897,0.1887,0.1829,0.1828,0.1799,0.1768,0.1756,0.1722,0.1708,0.1668,0.1657,0.1661,0.1625,0.165,0.162,0.1605,0.1605,0.1617,0.1706,0.1732,0.1787,0.1671,0.1673,0.1673,0,0.2008,0.1985,0.1991,0.1943,0.1938,0.1937,0.191,0.1898,0.1865,0.1842,0.1823,0.1782,0.1778,0.1739,0.1734,0.1715,0.1705,0.1687,0.1688,0.1686,0.1643,0.1706,0.1803,0.1813,0.1683,0.1683,0.1682,0,0.2091,0.2061,0.206,0.2046,0.1991,0.1992,0.1969,0.1933,0.1921,0.1897,0.1889,0.1865,0.1853,0.1836,0.1791,0.1766,0.1791,0.1747,0.1773,0.1774,0.1781,0.1781,0.1879,0.1774,0.1774,0.1774,0.1773,0,0.2159,0.2166,0.2097,0.2097,0.2103,0.2049,0.2057,0.2028,0.1997,0.1991,0.194,0.1935,0.1876,0.1865,0.183,0.1831,0.1826,0.1808,0.1799,0.1813,0.1816,0.1807,0.1803,0.1776,0.1775,0.1775,0.1774,0,0.2253,0.2207,0.2203,0.2151,0.2138,0.2145,0.2101,0.2099,0.2066,0.2059,0.2055,0.2002,0.1987,0.194,0.1913,0.1889,0.1902,0.1884,0.1914,0.1908,0.1936,0.1935,0.2033,0.2044,0.1931,0.1932,0.1933,0,0.23,0.2304,0.2252,0.2245,0.2224,0.2212,0.2199,0.2147,0.2136,0.2098,0.2102,0.2082,0.2064,0.2043,0.2003,0.1982,0.1964,0.2,0.196,0.1975,0.1966,0.1967,0.1968,0.2009,0.201,0.2011,0.2012,0,0.2389,0.2366,0.235,0.2326,0.2312,0.2291,0.2267,0.2263,0.2205,0.2195,0.2179,0.2165,0.2138,0.212,0.2093,0.207,0.2032,0.2025,0.203,0.2045,0.2063,0.2055,0.1938,0.2023,0.2022,0.2021,0.2021,0.202,0.2461,0.2463,0.2427,0.2411,0.2387,0.2366,0.2362,0.2328,0.2314,0.2288,0.2257,0.2245,0.2212,0.2172,0.2152,0.2142,0.2122,0.2129,0.2131,0.2134,0.2141,0.2064,0.2137,0.2137,0.2136,0.2136,0.2136,0,0.2549,0.2523,0.2509,0.2477,0.2465,0.2429,0.2401,0.2393,0.2383,0.2355,0.2338,0.2321,0.2303,0.2262,0.2241,0.2241,0.2224,0.2238,0.2238,0.2233,0.216,0.2158,0.2253,0.2253,0.2253,0.2253,0.2252,0.2252,0.2593,0.2594,0.2567,0.2556,0.253,0.2517,0.2504,0.2485,0.2463,0.2445,0.243,0.2403,0.2371,0.2347,0.233,0.2318,0.2314,0.2334,0.2317,0.2249,0.2238,0.2228,0.2226,0.2333,0.2333,0.2391,0.2392,0.2392]}]]